Regional Weather Roundup
Issued by NWS

Home | Current Version | Previous Version | Text Only | Print | Product List | Glossary Off
Versions: 1 2 3 4 5 6 7 8 9 10 11 12 13 14 15 16 17 18 19 20 21 22 23 24 25 26 27 28 29 30 31 32 33 34 35 36 37 38 39 40 41 42 43 44 45 46 47 48

000
ASUS43 KDMX 290207
RWRIA

WEATHER ROUNDUP FOR IOWA
NATIONAL WEATHER SERVICE DES MOINES IA
900 PM CDT THU MAY 28 2015

NOTE: "FAIR" INDICATES FEW OR NO CLOUDS BELOW 12,000 FEET WITH NO
SIGNIFICANT WEATHER AND/OR OBSTRUCTIONS TO VISIBILITY.

* - THESE STATIONS ARE NOT NWS STATIONS...THUS NOT UNDER NWS
QUALITY CONTROL.  THEY ALSO DO NOT REPORT WEATHER SUCH
AS PRECIPITATION OR FOG.

IAZ001>003-012>014-020>022-031>034-043>046-290300-
   NORTHWEST IOWA

CITY           SKY/WX    TMP DP  RH WIND       PRES   REMARKS
CARROLL *      CLOUDY    68  64  88 SE8       29.94F
CHEROKEE *     MOCLDY    66  64  94 S8        29.94S
DENISON *      MOCLDY    68  68 100 S8        29.93R
LE MARS *      MOCLDY    70  63  78 SE12      29.92R
ORANGE CITY *  CLEAR     66  59  77 S8        29.92S
SHELDON *      CLEAR     66  59  77 S10       29.91S
SIOUX CITY     MOCLDY    70  63  78 S12       29.91R
SPENCER        CLOUDY    67  62  84 S13       29.93S
STORM LAKE *   CLOUDY    66  63  88 S12G17    29.96S
$$

IAZ055>058-069>071-079>083-090>094-290300-
   SOUTHWEST IOWA

CITY           SKY/WX    TMP DP  RH WIND       PRES   REMARKS
ATLANTIC *     CLOUDY    70  64  83 S5        29.94F
AUDUBON *      CLOUDY    66  63  88 SE3       29.96S
CLARINDA *     MOCLDY    70  64  83 S6        29.98R
COUNCIL BLFS * PTCLDY    68  68 100 S9        29.95R
CRESTON *      CLEAR     68  66  94 SE8       29.97F
HARLAN  *      CLOUDY    68  68 100 S7        29.97F
LAMONI         CLOUDY    71  66  84 SE6       29.99R
RED OAK *      CLOUDY    70  64  83 S8        29.96R
SHENANDOAH *   MOCLDY    70  64  83 SE12      29.95S
$$

IAZ047>049-059>061-072>074-084-290300-
   CENTRAL IOWA

CITY           SKY/WX    TMP DP  RH WIND       PRES   REMARKS
AMES           CLOUDY    69  62  78 SE15G26   29.96F
ANKENY *       CLEAR     68  64  88 S10G18    29.97S
CHARITON *     MOCLDY    66  64  94 SE8       29.99R
DES MOINES     CLOUDY    69  64  84 SE12      29.97S
GRINNELL*      CLOUDY    64  63  94 SE9       29.99F
KNOXVILLE *    MOCLDY    66  64  94 SE10      29.96F
MARSHALLTOWN   MOCLDY    68  61  78 SE14      29.97F
PELLA *        LGT RAIN  64  64 100 SE6       29.98F
PERRY *        CLOUDY    70  64  83 SE14      29.96S
$$

IAZ004>006-015-016-023>025-035-036-290300-
   NORTH CENTRAL IOWA

CITY           SKY/WX    TMP DP  RH WIND       PRES   REMARKS
ALGONA *       MOCLDY    70 -35   1 S17G23    29.95R
CLARION *      PTCLDY    70  59  68 S16       29.95S
ESTHERVILLE    MOCLDY    67  60  78 S18       29.93R
FORT DODGE *   CLOUDY    70  61  73 S8        29.97R
MASON CITY     MOCLDY    71  58  63 S12       29.96F
FOREST CITY *  PTCLDY    68  55  64 S12       29.95S
IOWA FALLS *     N/A     70  61  73 S14       29.98F
$$

IAZ007>011-017>019-026>030-037>042-050>054-066-290300-
   NORTHEAST IOWA

CITY           SKY/WX    TMP DP  RH WIND       PRES   REMARKS
CEDAR RAPIDS   CLOUDY    68  62  81 S7        29.99F
CHARLES CITY * CLEAR     70  55  60 S8        29.97F
CLINTON *      CLOUDY    72  52  49 S6        30.05F
DECORAH *      CLEAR     70  54  56 S7        29.97F
DUBUQUE        MOCLDY    68  54  60 S9        30.02F
MONTICELLO *   CLEAR     72  55  56 SE8       30.00F
OELWEIN *      PTCLDY    72  54  53 SE10      29.98F
WATERLOO       MOCLDY    72  57  59 S15G23    29.96F
$$

IAZ064-065-067-068-078-290300-
   EAST CENTRAL IOWA

CITY           SKY/WX    TMP DP  RH WIND       PRES   REMARKS
DAVENPORT      CLOUDY    72  56  57 S5        30.03F
IOWA CITY      CLOUDY    68  63  84 S5        30.02F
MT. PLEASANT * CLOUDY    64  64 100 CALM      30.03F
MUSCATINE *    MOCLDY    70  61  73 SW7       30.03F
QUAD CITIES    CLOUDY    70  58  65 CALM      30.02S
$$

IAZ062-063-075>077-085>089-095>099-290300-
   SOUTHEAST IOWA

CITY           SKY/WX    TMP DP  RH WIND       PRES   REMARKS
BURLINGTON     CLOUDY    68  62  81 SW7       30.04S
FAIRFIELD *    MOCLDY    64  63  94 SE7       30.02F
FORT MADISON * CLEAR     66  63  88 CALM      30.03F
KEOKUK *       MOCLDY    66  64  94 CALM      30.02F
OSKALOOSA *    MOCLDY    64  63  94 SE10      30.00F
CENTERVILLE *  CLOUDY    64  64 100 SE7       30.02S
OTTUMWA        LGT RAIN  64  63  96 SE10      30.00F
WASHINGTON *   PTCLDY    64  64 100 S5        30.03F
$$

ABBREVIATIONS USED IN REMARKS
   TC - TEMPERATURES IN CELSIUS
  WCI - WIND CHILL INDEX
   HX - HEAT INDEX
  VSB - VISIBILITY
$$



USA.gov is the U.S. government's official web portal to all federal, state and local government web resources and services.